STARLINK-2059 (47668 NORAD) Tracking and Keplerian Element Data

This shows tracking and keplerian element data for the satellite.

Feedback or suggestion? Click here.




ElementValue
Catalog47668
NameSTARLINK-2059
Epoch Orbit282
Epoch Day60.16668981
Epoch Year2021
RAAN36.8447
Inclination53.0496
Eccentricity0.0001541
Argument of Perigee103.8487
Mean Anonmoly10.7079
Mean Motion15.86490819
Decay Rate0.00038399
L11 47668U 21012BA 21060.16668981 .00038399 00000-0 15131-3 0 9997
L22 47668 53.0496 36.8447 0001541 103.8487 10.7079 15.86490819 2821

Live tracking and technical data element details for STARLINK-2059 (NORAD 47668). STARLINK-2059 can be tracked NOW for your location showing map with azimuth and elevation plus other details from your city location.

Track the satellite on the map from your city or location and see movement details for azimuth, elevation, latitude, longitude, range, height, and movement on the map or in text.







IsCatalogInMostPopularTable: catalog: 47668, numindb: 3
Update: records affected: 1



GetName: 47668 STARLINK-2059

Hit Count: updated at: Mon, 01 Mar 2021 16:04:52 GMT